Tracking 32932 objects as of 14-Jan-2026
HD Live streaming from Space Station
objects crossing your sky now

STARLINK-32508

Track STARLINK-32508 now!
10-day predictions
STARLINK-32508 is classified as:


NORAD ID: 62158
Int'l Code: 2024-224V
Perigee: 489.1 km
Apogee: 491.2 km
Inclination: 43.0 °
Period: 94.3 minutes
Semi major axis: 6861 km
RCS: Unknown
Launch date: November 30, 2024
Source: (USA)
Launch site: AIR FORCE EASTERN TEST RANGE (AFETR)
Your satellite tracking list
Your tracking list is empty




NASA's NSSDC Master Catalog

Two Line Element Set (TLE):
1 62158U 24224V   26013.52813675  .00018587  00000-0  68322-3 0  9998
2 62158  43.0016 109.6356 0001524 258.0053 102.0628 15.27581231 64041
Source of the keplerian elements: AFSPC